Location: Mascot Post Office (historical)
(40.2645°N, 99.5462°W)
Time: 03:09:50
(UTC+00:00)

Aureole 1 Rocket - Visible Passes

Search period start: 23 October 2020 00:00
Search period end: 02 November 2020 00:00
Orbit: 379 x 1378 km, 73.9° (Epoch: 21 October)

Date Brightness Start Highest point End Pass type
(mag) Time Alt. Az. Time Alt. Az. Time Alt. Az.
29 Oct 3.8 12:36:14 10° S 12:41:59 70° ESE 12:46:20 10° NNE visible
30 Oct 3.5 12:32:25 10° SSW 12:38:05 82° ESE 12:42:22 10° NNE visible
31 Oct 3.3 12:28:37 10° SSW 12:34:10 86° WNW 12:38:22 10° NNE visible
01 Nov 6.8 10:45:34 10° ESE 10:45:59 10° E 10:46:24 10° E visible
01 Nov 3.2 12:24:50 10° SSW 12:30:14 73° WNW 12:34:21 10° NNE visible
